Portland Troutdale, OR

7:08 PM PDT on May 29, 2017 (GMT -0700)
Portland-Troutdale

Weather History for KTTD - July, 2013

Change the Weather History Date:

Friday, July 12, 2013

  Actual Average Record
Temperature  
Mean Temperature 61 °F 67 °F  
Max Temperature 74 °F 81 °F 104 °F (1961)
Min Temperature 48 °F 54 °F 45 °F (1989)
Degree Days  
Heating Degree Days 4 1  
Month to date heating degree days 5 17  
Cooling Degree Days 0 3  
Month to date cooling degree days 57 31  
Growing Degree Days 12 (Base 50)    
Moisture  
Dew Point 48 °F    
Average Humidity 59    
Maximum Humidity 80    
Minimum Humidity 38    
Precipitation  
Precipitation 0.00 in 0.03 in 0.36 in (2009)
Month to date precipitation 0.00 0.37  
Year to date precipitation 16.52 25.49  
Snow  
Snow 0.00 in - - ()
Month to date snowfall 0.0  
Since 1 June snowfall 0.0  
Snow Depth 0.00 in    
Sea Level Pressure  
Sea Level Pressure 30.03 in    
Wind  
Wind Speed 4 mph (NW)    
Max Wind Speed 10 mph    
Max Gust Speed 17 mph    
Visibility 10 miles    
Events      
T = Trace of Precipitation, MM = Missing Value Source: NWS Daily Summary

Daily Weather History Graph

Daily Weather History Graph

Search for Another Location

Airport or City:

Trip Planner

Search our weather history database for the weather conditions in past years. The results will help you decide how hot, cold, wet, or windy it might be!

Date:

Astronomy

Jul. 12, 2013 Rise Set
Actual Time 5:32 AM PDT 8:57 PM PDT
Civil Twilight 4:56 AM PDT 9:33 PM PDT
Nautical Twilight 4:07 AM PDT 10:22 PM PDT
Astronomical Twilight 3:05 AM PDT 11:23 PM PDT
Moon 10:10 AM PDT (7/12) 10:53 PM PDT (7/12)
Length of Visible Light 16h 37m
Length of Day
15h 24m
Waxing Crescent, 18% of the Moon is Illuminated
Jul 12
Waxing Crescent
Jul 15
First Quarter
Jul 22
Full
Jul 29
Last Quarter
Aug 6
New

Hourly Weather History & Observations

Time (PDT) Temp. Dew Point Humidity Pressure Visibility Wind Dir Wind Speed Gust Speed Precip Events Conditions
12:53 AM 59.0 °F 46.9 °F 64% 30.00 in 10.0 mi Calm Calm - N/A   Clear
1:53 AM 57.0 °F 46.9 °F 69% 30.01 in 10.0 mi Calm Calm - N/A   Clear
2:53 AM 55.0 °F 46.0 °F 72% 30.01 in 10.0 mi Calm Calm - N/A   Clear
3:53 AM 55.0 °F 46.0 °F 72% 30.02 in 10.0 mi Calm Calm - N/A   Clear
4:53 AM 54.0 °F 46.0 °F 75% 30.02 in 10.0 mi Calm Calm - N/A   Clear
5:53 AM 50.0 °F 45.0 °F 83% 30.02 in 10.0 mi Calm Calm - N/A   Clear
6:53 AM 53.1 °F 46.9 °F 80% 30.02 in 10.0 mi Calm Calm - N/A   Clear
7:53 AM 55.9 °F 48.0 °F 75% 30.02 in 10.0 mi Calm Calm - N/A   Clear
8:53 AM 57.9 °F 48.0 °F 70% 30.02 in 10.0 mi West 5.8 mph - N/A   Partly Cloudy
9:53 AM 61.0 °F 48.0 °F 62% 30.01 in 10.0 mi Variable 4.6 mph - N/A   Partly Cloudy
10:53 AM 64.9 °F 50.0 °F 58% 30.03 in 10.0 mi Calm Calm - N/A   Clear
11:53 AM 68.0 °F 48.9 °F 50% 30.02 in 10.0 mi Variable 3.5 mph - N/A   Clear
12:53 PM 71.1 °F 50.0 °F 47% 30.02 in 10.0 mi WSW 8.1 mph - N/A   Clear
1:53 PM 71.1 °F 48.0 °F 44% 30.02 in 10.0 mi NNW 8.1 mph 17.3 mph N/A   Partly Cloudy
2:53 PM 73.9 °F 48.9 °F 41% 30.02 in 10.0 mi Variable 5.8 mph - N/A   Clear
3:53 PM 72.0 °F 48.0 °F 43% 30.02 in 10.0 mi NW 8.1 mph - N/A   Clear
4:53 PM 73.0 °F 46.9 °F 39% 30.01 in 10.0 mi NNW 8.1 mph - N/A   Clear
5:53 PM 72.0 °F 46.0 °F 40% 30.01 in 10.0 mi Variable 5.8 mph - N/A   Clear
6:53 PM 72.0 °F 48.9 °F 44% 30.01 in 10.0 mi NW 4.6 mph - N/A   Clear
7:53 PM 70.0 °F 50.0 °F 49% 30.02 in 10.0 mi Variable 6.9 mph - N/A   Clear
8:53 PM 66.9 °F 48.9 °F 52% 30.04 in 10.0 mi NNW 6.9 mph - N/A   Clear
9:53 PM 64.0 °F 48.9 °F 58% 30.07 in 10.0 mi NNW 5.8 mph - N/A   Clear
10:53 PM 62.1 °F 48.0 °F 60% 30.08 in 10.0 mi NW 6.9 mph - N/A   Clear
11:53 PM 60.1 °F 46.9 °F 62% 30.10 in 10.0 mi Calm Calm - N/A   Clear